Regional Weather Roundup
Issued by NWS Little Rock, AR

Home | Current Version | Previous Version | Graphics & Text | Print | Product List | Glossary On
Versions: 1 2 3 4 5 6 7 8 9 10 11 12 13 14 15 16 17 18 19 20 21 22 23 24 25 26 27 28 29 30 31 32 33 34 35 36 37 38 39 40 41 42 43 44 45 46 47 48 49 50
000
ASUS44 KLZK 190305
RWRLZK

WEATHER ROUNDUP FOR ARKANSAS
NATIONAL WEATHER SERVICE LITTLE ROCK AR
1000 PM CDT THU SEP 18 2014

NOTE: "FAIR" INDICATES FEW OR NO CLOUDS BELOW 12,000 FEET WITH NO
SIGNIFICANT WEATHER AND/OR OBSTRUCTIONS TO VISIBILITY.

ARZ001-003-010-029-190400-
NORTHWEST ARKANSAS

CITY           SKY/WX    TMP DP  RH WIND       PRES   REMARKS
FAYETTEVILLE   CLEAR     67  64  90 E3        30.01R
FORT SMITH     PTCLDY    73  67  81 E5        29.96R
HARRISON       CLOUDY    64  64 100 SE8       30.06R FOG
BENTONVILLE    CLEAR     66  63  88 E8        30.02R
ROGERS         CLEAR     65  61  87 E10       30.03R
SILOAM SPGS    CLEAR     68  61  77 E6        30.01R
HIGHFILL       CLEAR     66  64  93 E3        30.01R
$$

ARZ004-005-016-190400-
NORTH CENTRAL ARKANSAS

CITY           SKY/WX    TMP DP  RH WIND       PRES   REMARKS
BATESVILLE     CLOUDY    68  61  77 CALM      30.03S
FLIPPIN        CLOUDY    64  61  88 CALM      30.04S
MTN HOME       CLOUDY    65  64  97 CALM      30.04R FOG
$$

ARZ040-041-190400-
WEST CENTRAL ARKANSAS

CITY           SKY/WX    TMP DP  RH WIND       PRES   REMARKS
MENA           PTCLDY    72  68  88 CALM      30.00R
MOUNT IDA      MOCLDY    71  68  90 CALM      29.97R
$$

ARZ009-017-025-026-028-190400-
NORTHEAST ARKANSAS

CITY           SKY/WX    TMP DP  RH WIND       PRES   REMARKS
CORNING          N/A     66  63  88 NE7       30.03S
JONESBORO      CLEAR     64  62  93 NE3       30.01R
NEWPORT        PTCLDY    64  63  97 N7        30.02F
WALNUT RIDGE   CLEAR     64  61  88 N5        30.02R
BLYTHEVILLE    MOCLDY    65  64  97 NE3       30.02R
$$

ARZ022-023-033-042-044-190400-
CENTRAL ARKANSAS

CITY           SKY/WX    TMP DP  RH WIND       PRES   REMARKS
LITTLE ROCK    MOCLDY    71  64  78 NE8       30.00R
N LITTLE ROCK  MOCLDY    68  66  93 NE7       30.00R
JACKSONVILLE   PTCLDY    70  65  84 NE6       30.00R
SEARCY         CLOUDY    69  63  81 N10       30.01R
HOT SPRINGS    MOCLDY    73  69  87 E6        29.99R
RUSSELLVILLE   CLOUDY    70  64  81 E8        30.01R
CLINTON        CLOUDY    70  64  83 CALM      30.04R FOG
$$

ARZ036-190400-
EAST ARKANSAS

CITY           SKY/WX    TMP DP  RH WIND       PRES   REMARKS
WEST MEMPHIS   CLOUDY    71  67  87 NE8       29.98S
$$

ARZ050-053-066-070-073-190400-
SOUTHWEST ARKANSAS

CITY           SKY/WX    TMP DP  RH WIND       PRES   REMARKS
ARKADELPHIA    FAIR      74  73  96 NE6       29.98R
CAMDEN         MOCLDY    72  66  83 NE5       29.95S
TEXARKANA      CLOUDY    75  74  96 E3        29.95R
EL DORADO      MOCLDY    74  72  93 NE3       29.95R
DE QUEEN       MOCLDY    75  73  93 E8        29.94R
$$

ARZ056-057-069-190400-
SOUTHEAST ARKANSAS

CITY           SKY/WX    TMP DP  RH WIND       PRES   REMARKS
PINE BLUFF     PTCLDY    70  67  90 N6        29.98R
STUTTGART      MOCLDY    72  66  83 CALM      30.00S
MONTICELLO     PTCLDY    71  68  90 CALM      29.97R

$$





USA.gov is the U.S. government's official web portal to all federal, state and local government web resources and services.